Torna al catalogo

SL-6 R/B(2)

AttivoHEO
NORAD 7800·ROCKET BODY·🇷🇺 Russia

Lanciato Apr 29, 1975 da Plesetsk Cosmodrome

Loading…

Prossimi Passaggi (prossime 24 ore)

TLE

AggiornatoSource: Space-Track

Epoca: Sep 13, 2026, 18:02 UTC

1 07800U 75036D   26256.75179222  .00001032  00000-0  00000-0 0  9998
2 07800  63.7894 135.1311 6688328 282.0533  15.2479  1.96846967368936

Traccia SL-6 R/B(2) in tempo reale con AllMySat

Download on the App Store